Weather in Piterskoye

Russia / Tambov Oblast     53°21′31″N   41°45′29″E
temp.,
°C
wind,
m/s
gust,
m/s
humid.,
%
clouds,
%
prec.,
mm/h
press.,
hPa
HPBL,
m
4 march, thu
thu400:00−2w4109597 0.1 1012620
03:00−2wsw5129199 0.1 1010568
06:00−2wsw61394100 0.1 1007589
09:000wsw71589100 0.3 1006708
12:00+1wsw71585100 0.0 1004798
15:00+1wsw71382100 0.0 10031034
18:000wsw51190100 0.0 1002913
21:000wsw41096100 0.3 1001661
5 march, fri
fri500:00−1wsw3997100 0.4 1001592
03:00−2w4897100 0.8 1001405
06:00−4nnw3696100 0.4 1003226
09:00−4nnw369199 0.6 1006361
12:00−2nw368364 0.0 1008553
15:00−3wnw358233 0.0 1010504
18:00−6w249328 0.0 101289
21:00−8w239447 0.0 101452
6 march, sat
sat600:00−8wnw229472 0.0 101533
03:00−9nw129286 0.0 101621
06:00−10nne1191100 0.0 101621
09:00−8ne1287100 0.0 1016151
12:00−3e117582 0.0 1016477
15:00−3e117165 0.0 1015711
18:00−7se1192100 0.1 101437
21:00−7s1193100 0.2 101561
7 march, sun
sun700:00−8w239787 0.1 1016106
03:00−10w369688 0.2 1016155
06:00−12wsw359558 0.0 1015142
09:00−9sw6128251 0.0 1014479
12:00−5sw81474100 0.0 1010971
15:00−3sw91768100 0.0 10061296
18:00−3sw91791100 1.0 10021377
21:00−3wnw71389100 2.9 10021188
8 march, mon
mon800:00−8w3779100 0.1 1003208
03:00−10sw368150 0.1 1003110
06:00−7ssw3108989 0.0 1001394
09:00−4sw5118895 0.1 999799
12:00−3w91485100 0.4 9991433
15:00−7w9157480 0.6 10031667
18:00−8w7148598 0.1 10071290
21:00−10w4128580 0.1 1011502